Location: Potawatomi Wildlife Park
(41.2308°N, 86.1050°W)
Time: 11:24:27
(UTC-05:00)

Hubble Space Telescope - Visible Passes

Search period start: 26 January 2015 00:00
Search period end: 05 February 2015 00:00
Orbit: 544 x 548 km, 28.5° (Epoch: 26 January)

Date Brightness Start Highest point End Pass type
(mag) Time Alt. Az. Time Alt. Az. Time Alt. Az.
28 Jan 3.4 20:01:35 10° S 20:02:02 11° S 20:02:02 11° S visible
29 Jan 3.2 19:52:52 10° SSW 19:54:30 12° S 19:54:35 12° S visible
30 Jan 3.1 19:44:24 10° SSW 19:46:23 13° S 19:47:08 13° SSE visible
31 Jan 3.1 19:36:07 10° SSW 19:38:16 14° S 19:39:42 12° SSE visible
01 Feb 3.2 19:27:56 10° SSW 19:30:10 14° S 19:32:16 10° SSE visible
02 Feb 3.2 19:19:49 10° SW 19:22:03 14° S 19:24:15 10° SSE visible
03 Feb 3.3 19:11:48 10° SW 19:13:55 14° S 19:16:01 10° SSE visible
04 Feb 3.4 19:03:53 10° SW 19:05:47 13° S 19:07:40 10° SSE visible
